Terminal Aerodrome Forecast
Issued by NWS Omaha/Valley, NE

Home | Current Version | Previous Version | Graphics & Text | Print | Product List | Glossary On
Versions: 1 2 3 4 5 6 7 8 9 10 11 12 13 14 15 16 17 18 19 20 21 22 23 24 25 26 27 28 29 30 31 32 33 34 35 36 37 38 39
000
FTUS43 KOAX 200618 AAA
TAFOFK
TAF AMD
KOFK 200618Z 2006/2106 18006KT 4SM BR OVC006
      TEMPO 2006/2009 2SM BR
     FM200900 18005KT 3SM BR OVC005
      TEMPO 2012/2014 1SM BR
     FM201600 18006KT 5SM BR OVC008
     FM201800 18009KT P6SM OVC012=

USA.gov is the U.S. government's official web portal to all federal, state and local government web resources and services.